Погода в Ковде

Поиск расширенной информации на нашем сайте:

Полезная информация:

Новости сайта



02.01.2020
Опубликован Долгосрочный прогноз погоды по городам России и ближнего зарубежья на январь 2020 года.
Карты: Прогноз на январь и февраль 2020 года, Сравнение прогнозируемой аномалии приземной температуры воздуха на январь 2020 года по разным моделям.




Погода в Ковде - сегодня

Время (UTC), дата Ветер
(°,м/с) 
Видим.   Явления Облачность Т
(°С)
Тd
(°С)
f(%) Тe
(°С)
Pmin
(гПа)
dP
(гПа)
Po
(мм)
O2
(г/м3)
Тmin Tmax R s Состояние
почвы
12 29.11.20 тихо () -1  14000 м    н/о 
-2.2 -2.3 99 -2  1029.8  -0.5  769  313           
15 29.11.20 тихо ()   20000 м    10/10 600 м 
[Sc]
-2.5 -2.5 100 -3  1029.1  -0.7  769  313      0.9     
18 29.11.20 тихо () -2  20000 м    10/10 600 м 
[Sc]
-2.4 -2.5 99 -2  1028.2  -0.9  768  313    -2  0.4     
21 29.11.20 190 (Ю) 1-3  16000 м    н/о 
-2.2 -2.3 99 -2  1027.1  -1.1  767  312           
00 30.11.20 190 (Ю) 1-4  20000 м    н/о 
-1.6 -1.8 99 -1  1026.1  -1  767  311           
03 30.11.20 190 (Ю) 1-4  20000 м    н/о 
-2.4 -2.8 97 -2  1024.9  -1.2  766  312  -2.5         
06 30.11.20 190 (Ю) 2-5  20000 м    10/10 300 м 
[Sc]
-2.8 -3.1 98 -4  1024.1  -0.9  765  312  -2.8    0.2  11  равномерный
сухой снег
100% 
09 30.11.20 180 (Ю) 3-6  20000 м    10/10 600 м 
[Sc]
-3.3 -3.6 98 -5  1023.4  -0.6  765  312           
12 30.11.20 180 (Ю) 2-4  20000 м    н/о 
-3.3 -3.6 98 -4  1021.8  -1.6  763  312           
15 30.11.20 180 (Ю) 1-4  20000 м  слаб. ливневой снег  10/10 300 м кучево-дожд. 
[Cb cap]
-3.3 -3.4 99 -3  1019.7  -2.1  762  311      0.0     
18 30.11.20 190 (Ю) 2-4  18000 м  {ливн. осадки}  10/10 300 м 
[St]
-2.3 -2.4 99 -3  1017.4  -2.2  760  309    -2.3  0.0     
21 30.11.20 180 (Ю) 2-4  19000 м    н/о 
-1.6 -1.8 99 -3  1015.9  -1.5  759  308           
00 01.12.20 190 (Ю) 2-4  18000 м    н/о 
-0.6 -0.6 100 -1  1014.3  -1.6  758  306           
03 01.12.20 180 (Ю) 2-5  18000 м    н/о 
-0.3 -0.4 99 -1  1012.7  -1.6  757  305  -3.2         
06 01.12.20 190 (Ю) 1-3  20000 м    10/10 600 м 
[Sc]
-0.8 -1 99 1011.5  -1.2  756  306  -2.3      11  равномерный
сухой снег
100% 
09 01.12.20 200 (Ю) 2-5  20000 м    9/9 600 м 
[Sc]
-0.5 -1 96 -1  1011.3  -0.2  756  305           
12 01.12.20 200 (Ю) 2-4  20000 м    н/о 
-0.7 -1.4 95 -2  1011.6  0.3  756  305           
15 01.12.20 200 (Ю) 2-4  5000 м  слаб. ливневой снег  10/10 300 м кучево-дожд. 
[Cb cap]
-1.4 -1.6 99 -2  1012.1  0.5  756  306      0.2     
21 01.12.20 тихо () -1  20000 м    н/о 
-2.7 -2.8 99 -3  1015.4  759  309           
00 02.12.20 тихо () -1  20000 м    н/о 
-2.2 -2.2 100 -2  1017.7  2.2  760  309           
03 02.12.20 тихо () -1  20000 м    н/о 
-2 -1.9 100 -2  1019.5  1.9  762  309  -3.7    0.7     
06 02.12.20 тихо () -1  8000 м  слаб. ливневой снег  9/8 300 м кучево-дожд., средняя 
[Cb cap|Ac trans]
-2.3 -2.2 100 -2  1020.7  1.1  763  310  -3.7    0.3  12  равномерный
сухой снег
100% 
09 02.12.20 210 (ЮЗ) 1-3  20000 м  в посл. час ливневой снег  9/9 300 м кучево-дожд. 
[Cb cap]
-1.4 -1.4 100 -1  1021.2  0.6  763  309           
12 02.12.20 210 (ЮЗ) 2-5  16000 м    н/о 
-3.1 -3.4 98 -4  1021.3  763  311           
15 02.12.20 190 (Ю) 2-5  20000 м    10/10 600 м 
[Sc]
-3.6 -3.9 98 -5  1020.9  -0.4  763  312      0.6     
Время (UTC), дата Ветер
(°,м/с) 
Видим.   Явления Облачность Т
(°С)
Тd
(°С)
f(%) Тe
(°С)
Pmin
(гПа)
dP
(гПа)
Po
(мм)
O2
(г/м3)
Тmin Tmax R s Состояние
почвы

Для получения пояснительной информации подведите курсор к названию столбца.

ПОГОДА в Ковде - архив

Всё, что Вы хотите узнать о погоде в Ковде - удобно и подробно!

Выберите нужную дату (начиная с 1 января 2019* года) и нажмите кнопку "Найти".
Будут отображены архивные сводки погоды по пункту Ковда, начиная с указанной даты.


Отображать данные в формате CSV (для использования в таблицах Excel)


Внимание! Наш архив погоды предназначен исключительно для личного некоммерческого использования в познавательных целях. Если Вам необходимы официальные справки о состоянии погоды (для производственных, юридических, коммерческих и т.п. целей), обращайтесь в органы Росгидромета.

*Примечание: данная дата относится к архиву по метеостанциям СССР (Россия, СНГ, Балтия).
Архив по метеостанциям Зарубежной Европы и Азии (кроме Китая) хранится 10 дней, по другим регионам земного шара (Китай, Африка, Америка, Австралия, Океания) - 1 день.

Ковда - район местоположения метеостанции


Название, широта, долгота, высота метеостанции:
Ковда 66.7°ш. 32.9°д. 18 м над ур. моря [Российская Федерация]

Дополнительная информация

В oтличие oт бoльшинства пoгoдных сайтoв мы публикуем пoдрoбную метеoинфoрмацию в детальнoм прoфессиoнальнoм фoрмате.

Характеристики температуры и влажнoсти вoздуха измеряются на высoте 2 м в тени вдали oт зданий и деревьев.
Скoрoсть ветра измеряется на высoте 10 м (на урoвне рoста челoвека скoрoсть ветра ниже в 1.5-2 раза). Если метеoстанция нахoдится в гoрoде или в лесу, тo скoрoсть ветра занижена на 2-4 м/с пo сравнению с oткрытым местoм. Скoрoсть ветра над акватoриями крупных рек и oзёр, а также на вершинах хoлмoв на 2-5 м/с выше, чем в oбычных услoвиях.
Атмoсфернoе давление в разных тoчках местнoсти мoжет значительнo oтличаться oт давления на метеoстанции, в зависимoсти oт услoвий рельефа (при пoдъёме на 10 м давление пoнижается примернo на 1 мм рт.ст.).